Location: Gorrie
(43.8742°N, 81.1087°W)
Time: 06:27:37
(UTC+00:00)

SL-08 ROCKET BODY - Pass Details

Date: 09 December 2025
Orbit: 896 x 961 km, 82.9° (Epoch: 13 January)

Event Time Altitude Azimuth Distance (km) Brightness Sun altitude
Rises 11:28:47 0° 184° (S) 3,512 7.6 -13.6°
Reaches altitude 10° 11:31:14 10° 183° (S) 2,570 6.9 -13.2°
Maximum altitude 11:37:04 84° 97° (E) 908 4.4 -12.2°
Drops below altitude 10° 11:42:56 10° 9° (N) 2,580 6.6 -11.2°
Sets 11:45:23 0° 9° (N) 3,527 7.3 -10.8°
